CW5709 Weather Reports


time (UTC)temp
C
wind
direction
speed
KPH
gust
KPH
rain 1hr
cm
rain 24hr
cm
rain mn
cm
humidity
%
barometer
mb
20210927071433 17 164 3.2 12.9 0.00 0.00 0.00 78 1011.6
20210927070423 17 229 1.6 9.7 0.00 0.00 0.00 79 1011.4
20210927065418 17 159 3.2 11.3 0.00 0.00 0.00 80 1011.3
20210927064421 17 264 1.6 12.9 0.00 0.00 0.00 81 1011.2
20210927063438 17 267 1.6 12.9 0.00 0.00 0.00 82 1011.3
20210927062431 17 230 4.8 12.9 0.00 0.00 0.00 83 1011.4
20210927061428 17 155 4.8 22.5 0.00 0.00 0.00 84 1011.4
20210927060427 17 152 4.8 19.3 0.00 0.00 0.00 85 1011.3
20210927055425 17 162 3.2 12.9 0.00 0.00 0.00 86 1011.3
20210927054418 17 180 1.6 8.0 0.00 0.00 0.00 86 1011.3
20210927053434 17 181 0.0 3.2 0.00 0.00 0.00 86 1011.3
20210927052430 17 175 0.0 12.9 0.00 0.00 0.00 86 1011.3
20210927051637 17 186 1.6 6.4 0.00 0.00 0.00 86 1011.1
20210927050525 18 246 1.6 4.8 0.00 0.00 0.00 85 1011.0
20210927045550 18 223 1.6 12.9 0.00 0.00 0.00 84 1011.1
20210927044517 18 178 3.2 9.7 0.00 0.00 0.00 83 1011.2
20210927043425 18 171 0.0 11.3 0.00 0.00 0.00 83 1011.0
20210927042436 18 176 3.2 16.1 0.00 0.00 0.00 82 1011.1
20210927041427 18 178 3.2 6.4 0.00 0.00 0.00 81 1011.0
20210927040438 18 178 1.6 14.5 0.00 0.00 0.00 80 1010.9
20210927035431 18 171 4.8 11.3 0.00 0.00 0.00 77 1010.8
20210927034430 19 173 0.0 14.5 0.00 0.00 0.00 76 1010.9
20210927033422 19 266 0.0 6.4 0.00 0.00 0.00 73 1010.8
20210927032440 19 171 4.8 8.0 0.00 0.00 0.00 72 1010.8
20210927031431 19 212 1.6 6.4 0.00 0.00 0.00 71 1010.7
20210927030427 19 199 0.0 6.4 0.00 0.00 0.00 70 1010.7
20210927025442 20 203 0.0 6.4 0.00 0.00 0.00 69 1010.6
20210927024432 20 170 1.6 9.7 0.00 0.00 0.00 68 1010.4
20210927023424 20 154 3.2 8.0 0.00 0.00 0.00 67 1010.5
20210927022441 20 284 1.6 11.3 0.00 0.00 0.00 65 1010.6
20210927021434 20 205 1.6 8.0 0.00 0.00 0.00 63 1010.5
20210927020435 20 180 0.0 4.8 0.00 0.00 0.00 62 1010.6
20210927015426 21 181 0.0 4.8 0.00 0.00 0.00 60 1010.7
20210927014418 21 179 0.0 11.3 0.00 0.00 0.00 59 1010.6
20210927013418 21 176 0.0 4.8 0.00 0.00 0.00 58 1010.7
20210927012436 21 159 1.6 8.0 0.00 0.00 0.00 57 1010.8
20210927011430 22 292 3.2 9.7 0.00 0.00 0.00 56 1010.9
20210927010428 22 172 3.2 25.7 0.00 0.00 0.00 54 1010.7
20210927005426 22 166 4.8 14.5 0.00 0.00 0.00 51 1010.9
20210927004423 22 157 1.6 8.0 0.00 0.00 0.00 50 1010.7
20210927003449 22 163 3.2 16.1 0.00 0.00 0.00 49 1010.9
20210927002452 22 267 3.2 11.3 0.00 0.00 0.00 49 1010.9
20210927001435 22 148 1.6 11.3 0.00 0.00 0.00 49 1010.9
20210927000429 22 198 1.6 12.9 0.00 0.00 0.00 48 1011.0
20210926235647 23 20 1.6 9.7 0.00 0.00 0.00 46 1011.0
20210926234513 23 200 1.6 12.9 0.00 0.00 0.00 44 1011.2
20210926232621 24 242 1.6 8.0 0.00 0.00 0.00 41 1011.2
20210926231437 24 248 1.6 17.7 0.00 0.00 0.00 40 1011.3
20210926230433 25 260 3.2 14.5 0.00 0.00 0.00 40 1011.4
20210926225441 25 243 3.2 12.9 0.00 0.00 0.00 36 1011.4
20210926224614 25 245 0.0 8.0 0.00 0.00 0.00 37 1011.4
20210926223431 26 178 3.2 9.7 0.00 0.00 0.00 36 1011.3
20210926222523 26 186 4.8 8.0 0.00 0.00 0.00 35 1011.3
20210926221456 26 149 3.2 12.9 0.00 0.00 0.00 33 1011.5
20210926220445 26 169 3.2 6.4 0.00 0.00 0.00 38 1011.5
20210926215640 25 163 1.6 8.0 0.00 0.00 0.00 38 1011.7
20210926214507 25 155 3.2 9.7 0.00 0.00 0.00 37 1011.9
20210926212425 25 224 3.2 17.7 0.00 0.00 0.00 40 1012.4
20210926211502 24 163 9.7 16.1 0.00 0.00 0.00 39 1012.5
20210926210429 24 161 8.0 16.1 0.00 0.00 0.00 38 1012.5
20210926205423 24 114 0.0 9.7 0.00 0.00 0.00 43 1012.6
20210926204419 23 187 1.6 16.1 0.00 0.00 0.00 42 1012.9
20210926203427 23 148 1.6 11.3 0.00 0.00 0.00 41 1013.0
20210926202430 23 134 3.2 6.4 0.00 0.00 0.00 44 1013.2
20210926201425 23 165 0.0 14.5 0.00 0.00 0.00 44 1013.3
20210926200424 23 189 3.2 14.5 0.00 0.00 0.00 45 1013.4
20210926195417 22 219 3.2 6.4 0.00 0.00 0.00 47 1013.4
20210926194435 22 172 3.2 24.1 0.00 0.00 0.00 50 1013.5
20210926193424 21 157 3.2 16.1 0.00 0.00 0.00 49 1013.6
20210926192441 21 141 11.3 19.3 0.00 0.00 0.00 49 1013.8
20210926191538 21 161 3.2 11.3 0.00 0.00 0.00 51 1013.9
20210926190422 21 168 8.0 19.3 0.00 0.00 0.00 51 1014.0
20210926185433 20 171 6.4 12.9 0.00 0.00 0.00 51 1014.3
20210926184421 20 297 3.2 9.7 0.00 0.00 0.00 54 1014.4
20210926183437 19 155 6.4 14.5 0.00 0.00 0.00 56 1014.6
20210926182428 19 176 9.7 17.7 0.00 0.00 0.00 54 1014.6
20210926181435 18 164 4.8 12.9 0.00 0.00 0.00 57 1014.6
20210926180426 18 173 6.4 16.1 0.00 0.00 0.00 57 1014.6
20210926175417 17 211 4.8 16.1 0.00 0.00 0.00 60 1015.0
20210926174423 17 176 4.8 14.5 0.00 0.00 0.00 61 1015.0
20210926173438 16 161 3.2 12.9 0.00 0.00 0.00 61 1015.2
20210926172432 16 178 6.4 14.5 0.00 0.00 0.00 62 1015.3
20210926171418 16 182 4.8 11.3 0.00 0.00 0.00 63 1015.3
20210926170436 16 193 3.2 11.3 0.00 0.00 0.00 65 1015.5
20210926165435 15 172 6.4 12.9 0.00 0.00 0.00 65 1015.5
20210926164432 15 173 3.2 11.3 0.00 0.00 0.00 66 1015.4
20210926163425 15 150 1.6 16.1 0.00 0.00 0.00 67 1015.6
20210926162422 15 189 1.6 8.0 0.00 0.00 0.00 68 1015.7
20210926161421 15 176 1.6 9.7 0.00 0.00 0.00 69 1015.8
20210926160438 15 174 1.6 8.0 0.00 0.00 0.00 71 1015.9
20210926155430 14 174 0.0 4.8 0.00 0.00 0.00 73 1016.0
20210926154428 14 174 0.0 3.2 0.00 0.00 0.00 75 1016.0
20210926153423 13 174 1.6 4.8 0.00 0.00 0.00 76 1016.1
20210926152417 13 173 1.6 4.8 0.00 0.00 0.00 78 1015.9
20210926151434 13 173 0.0 4.8 0.00 0.00 0.00 78 1015.8
20210926150433 13 173 0.0 3.2 0.00 0.00 0.00 78 1015.8
20210926145426 13 173 0.0 8.0 0.00 0.00 0.00 79 1015.9
20210926144422 13 175 0.0 6.4 0.00 0.00 0.00 79 1015.9
20210926143420 13 175 0.0 3.2 0.00 0.00 0.00 80 1016.0
20210926142441 13 175 0.0 4.8 0.00 0.00 0.00 81 1015.9
20210926141435 13 175 0.0 3.2 0.00 0.00 0.00 81 1016.0
20210926140425 13 175 0.0 3.2 0.00 0.00 0.00 81 1015.9
20210926135438 13 175 0.0 3.2 0.00 0.00 0.00 81 1015.8
20210926134433 13 175 0.0 0.0 0.00 0.00 0.00 81 1015.9
20210926133431 13 175 0.0 3.2 0.00 0.00 0.00 81 1016.0
20210926132440 13 175 0.0 4.8 0.00 0.00 0.00 81 1016.0
20210926131446 13 175 1.6 4.8 0.00 0.00 0.00 82 1015.7
20210926130433 13 175 0.0 3.2 0.00 0.00 0.00 82 1015.7
20210926125426 13 175 0.0 8.0 0.00 0.00 0.00 82 1015.6
20210926124422 13 175 0.0 4.8 0.00 0.00 0.00 82 1015.6
20210926123433 13 175 0.0 4.8 0.00 0.00 0.00 82 1015.6
20210926122429 13 175 0.0 1.6 0.00 0.00 0.00 82 1015.7
20210926121422 13 175 0.0 3.2 0.00 0.00 0.00 83 1015.8
20210926120437 13 175 0.0 6.4 0.00 0.00 0.00 83 1015.9
20210926115424 13 175 1.6 4.8 0.00 0.00 0.00 83 1015.7
20210926114422 13 175 0.0 4.8 0.00 0.00 0.00 83 1015.8
20210926113440 13 175 0.0 1.6 0.00 0.00 0.00 83 1015.8
20210926112434 13 175 0.0 1.6 0.00 0.00 0.00 83 1016.0
20210926111424 13 175 0.0 0.0 0.00 0.00 0.00 83 1016.2
20210926110420 13 175 0.0 0.0 0.00 0.00 0.00 83 1016.1
20210926105437 13 175 0.0 3.2 0.00 0.00 0.00 83 1015.9
20210926104433 13 175 0.0 0.0 0.00 0.00 0.00 83 1015.8
20210926103424 13 175 0.0 1.6 0.00 0.00 0.00 83 1015.9
20210926102419 13 175 0.0 1.6 0.00 0.00 0.00 83 1015.9
20210926101437 13 175 0.0 1.6 0.00 0.00 0.00 83 1015.8
20210926100432 13 175 0.0 0.0 0.00 0.00 0.00 84 1016.2
20210926095422 13 175 0.0 0.0 0.00 0.00 0.00 84 1016.2
20210926094434 13 175 0.0 1.6 0.00 0.00 0.00 84 1016.1
20210926093428 13 175 0.0 1.6 0.00 0.00 0.00 84 1015.7
20210926092422 12 175 1.6 4.8 0.00 0.00 0.00 85 1015.6
20210926091430 12 267 1.6 6.4 0.00 0.00 0.00 86 1015.4
20210926090423 12 271 0.0 1.6 0.00 0.00 0.00 86 1015.3
20210926085437 12 271 0.0 0.0 0.00 0.00 0.00 86 1015.5
20210926084424 12 271 0.0 0.0 0.00 0.00 0.00 86 1015.5
20210926083436 12 271 0.0 3.2 0.00 0.00 0.00 86 1015.7
20210926082426 12 271 0.0 0.0 0.00 0.00 0.00 86 1015.6
20210926081423 12 271 0.0 0.0 0.00 0.00 0.00 86 1015.4
20210926080435 12 271 0.0 0.0 0.00 0.00 0.00 85 1015.4
20210926075428 12 271 0.0 0.0 0.00 0.00 0.00 85 1015.5
20210926074429 12 271 0.0 1.6 0.00 0.00 0.00 85 1015.4
20210926073443 12 271 0.0 3.2 0.00 0.00 0.00 85 1015.3
20210926072430 12 271 0.0 3.2 0.00 0.00 0.00 85 1015.3